Regional Weather Roundup
Issued by NWS

Home | Current Version | Previous Version | Text Only | Print | Product List | Glossary On
Versions: 1 2 3 4 5 6 7 8 9 10 11 12 13 14 15 16 17 18 19 20 21 22 23 24 25 26 27 28 29 30 31 32 33 34 35 36 37 38 39 40 41 42 43 44 45 46 47 48 49 50
000
ASUS44 KLUB 231901
RWRTX
WEST TEXAS WEATHER ROUNDUP
NATIONAL WEATHER SERVICE LUBBOCK TX
200 PM CDT FRI JUN 23 2017

NOTE: "FAIR" INDICATES FEW OR NO CLOUDS BELOW 12,000 FEET WITH NO
SIGNIFICANT WEATHER AND/OR OBSTRUCTIONS TO VISIBILITY.

TXZ004-006>008-010-012-014-016-OKZ002-232000-
TEXAS PANHANDLE/OKLAHOMA PANHANDLE

CITY           SKY/WX    TMP DP  RH WIND       PRES   REMARKS
AMARILLO       CLOUDY    78  62  57 NE28G37   30.08F
BORGER         PTSUNNY   81  60  48 NE17G32   30.07S
CANADIAN       SUNNY     84  54  34 NE18G33   30.02S
DALHART        SUNNY     78  49  35 NE25G41   30.16S
DUMAS          MOSUNNY   75  51  41 NE24G35   30.13S
GUYMON         SUNNY     77  53  43 NE17G29   30.14R
PERRYTON       SUNNY     80  54  40 NE18G25   30.09R
$$

TXZ026-029-035-045-048-232000-
SOUTHERN PANHANDLE/SOUTH PLAINS/ROLLING PLAINS

CITY           SKY/WX    TMP DP  RH WIND       PRES   REMARKS
CHILDRESS      SUNNY     90  64  42 NE20G28   29.93R
SEMINOLE       SUNNY    102  50  17 S12       29.91S HX  99
LUBBOCK        MOSUNNY   97  56  25 NE10G22   29.95R HX  95
PLAINVIEW      SUNNY     86  59  39 NE16G29   30.00R
SNYDER         MOSUNNY   98  59  27 SW8       29.89S HX  98
$$

TXZ052-054-060>062-072-078-127-140-154-169-232000-
PERMIAN BASIN/CONCHO VALLEY/BIG COUNTRY/EDWARDS PLATEAU

CITY           SKY/WX    TMP DP  RH WIND       PRES   REMARKS
ABILENE        SUNNY    101  59  24 E9        29.84R HX 101
BIG SPRING     SUNNY    103  51  18 E5        29.87S HX 100
BROWNWOOD      LGT RAIN  99  64  32 E7        29.81F HX 101
JUNCTION       SUNNY    102  62  26 S10       29.81F HX 104
MIDLAND        SUNNY    105  48  14 SE15G24   29.85F HX 101
ODESSA         SUNNY    105  47  14 S21G26    29.86F HX 101
SAN ANGELO     SUNNY    106  54  17 MISG      29.80S HX 104
SONORA         SUNNY    100  59  25 SE13      29.87F HX 100
SWEETWATER     SUNNY    100  56  23 E6        29.90R HX  99
WINK           SUNNY    108  47  13 S13G21    29.81F HX 104
$$

TXZ055-058-074-075-080-082-232000-
FAR WEST/SOUTHWEST MOUNTAINS/TRANS PECOS

CITY           SKY/WX    TMP DP  RH WIND       PRES   REMARKS
ALPINE         SUNNY     99  47  17 E12G17    30.03S HX  95
DRYDEN           N/A    102  61  25 SE15      29.81F HX 103
EL PASO        SUNNY    106  32   7 NE13G23   29.89F HX  99
FORT STOCKTON  SUNNY    104  52  17 SE17G28   29.84S HX 101
MARFA          PTSUNNY   96  50  20 SE16G22   30.01S
PRESIDIO       FAIR     107  47  13 E3        29.83S HX 103
$$

TXZ014-016-019-021>030-083-232000
TEXAS TECH WEST TEXAS MESONET/TEXAS PANHANDLE/NORTHERN SOUTH PLAINS

CITY           SKY/WX    TMP DP  RH WIND       PRES   REMARKS
ABERNATHY 5ENE   N/A     91  59  33 NE23      29.98R
AMARILLO 9NNE    N/A     75  62  62 NE22      30.09S
AMARILLO 7SSE    N/A     78  61  57 N23       30.10S
AMHERST 1NE      N/A     87  60  40 N25       30.02S
BOOTLEG 11WNW    N/A     69  59  70 NE18      30.17R
CANADIAN 6E      N/A     84  53  33 NE20      30.01S
CAPROCK CYN SP   N/A     87  62  42 N10G21    29.99R
CHILDRESS 2NNE   N/A     90  64  41 N22       29.92R
CLARENDON 2WSW   N/A     85  63  47 NE24G33   30.00S
CLAUDE 12SW      N/A     82  62  50 N24       30.05S
DIMMITT 2NE      N/A     81  59  46 N23       30.08R
FLOYDADA 2NNE    N/A     88  58  36 NE23      30.00R
FRIONA 2NE       N/A     76  61  59 N22       30.12R
GOODLETT 3W      N/A     92  62  37 N22       29.88S
HART 3N          N/A     83  60  45 NE21      30.05S
HEREFORD 2NW     N/A     75  58  56 N24       30.11R
MCLEAN 1E        N/A     82  63  52 NE22G32   30.01S
MEMPHIS 1NE      N/A     89  63  41 N20       29.94S
MULESHOE 2SSW    N/A     81  60  48 N18       30.06R
OLTON 6S         N/A     86  60  40 N22       30.01R
PALO DURO SP     N/A     80  61  52 NE16G26   30.07S
PAMPA 2E         N/A     79  62  56 NE26      30.06S
PLAINVIEW 1S     N/A     87  60  39 NE17      30.00R
SILVERTON 7ESE   N/A     85  60  41 NE22      30.01R
TULIA 2ENE       N/A     85  61  44 N21G33    30.04R
TURKEY 2WSW      N/A     89  63  41 NE22      29.97R
UMBARGER 3NNE    N/A     77  62  58 NE22      30.10R
$$

TXZ033>036-039>041-045>048-232000
TEXAS TECH WEST TEXAS MESONET/SOUTH PLAINS

CITY           SKY/WX    TMP DP  RH WIND       PRES   REMARKS
AIKEN 3WSW       N/A     86  64  46 NE20      30.02R
ANDREWS 2NE      N/A    103  43  13 S9        29.89R HX  99
ANTON 6SSW       N/A     96  58  27 N20       29.96S HX  95
BROWNFIELD 2S    N/A     97  53  22 E2        29.94S HX  95
DENVR CTY 7WNW   N/A     99  48  17 NE10      29.94S HX  96
GAIL 2ESE        N/A    101  57  23 NE2       29.87S HX 100
LAMESA 2SE       N/A    102  51  18 SE9       29.90S HX  99
LEVELLAND 4S     N/A     97  52  21 N16       29.97R
LUBBOCK 3WNW     N/A     97  53  22 NE10      29.95R HX  95
MORTON 1ENE      N/A     92  58  32 N28       30.00R
ODONNELL 1N      N/A    100  46  16 SE6       29.91S HX  96
PLAINS 3N        N/A     99  51  19 E8        29.96S HX  96
RALLS 1SE        N/A     97  58  26 NE21      29.95S HX  96
REESE CENTER     N/A     96  53  23 NE14      29.95S
SEAGRAVES 1SW    N/A    101  52  19 NE5       29.92S HX  98
SEMINOLE 2NNE    N/A    102  49  17 E10       29.90S HX  98
SLATON 2NE       N/A     99  52  20 N8        29.93R HX  96
SNYDER 3E        N/A    101  56  22 SE5       29.89S HX 100
SUNDOWN 8SW      N/A     99  49  18 N8        29.96S HX  96
TAHOKA 3NNE      N/A    100  51  19 W1        29.92R HX  97
WOLFFORTH 6SSW   N/A     99  51  19 N10       29.94S HX  96
$$

TXZ031-032-036>038-042>044-232000-
TEXAS TECH WEST TEXAS MESONET/ROLLING PLAINS

CITY           SKY/WX    TMP DP  RH WIND       PRES   REMARKS
ASPERMONT 3NE    N/A    103  55  19 S5        29.83S HX 102
FLUVANNA 3WNW    N/A     99  52  20 SE3       29.90S HX  96
GRAHAM 5SSW      N/A    101  52  19 E8        29.90S HX  98
GUTHRIE 10WSW    N/A    102  57  22 N6        29.86R HX 101
HASKELL 1NW      N/A    101  56  21 NE7       29.83R HX 100
JAYTON 1SSE      N/A    102  55  20 NE7       29.85S HX 100
KNOX CITY 3NW    N/A    105  55  18 E8        29.81F HX 103
LK A HENRY 1NW   N/A    101  56  22 N3        29.86S HX  99
NORTHFIELD 1S    N/A     91  61  36 NE21G32   29.93R
ODELL 4ENE       N/A     94  63  34 NE14      29.85F HX  95
PADUCAH 10SW     N/A     94  62  33 N21       29.89R HX  95
POST 1NE         N/A    100  54  21 NE13      29.88S HX  98
RRING SPRGS 3N   N/A     92  61  35 N18G28    29.95R
SPUR 1W          N/A     99  51  19 NW6       29.88S HX  96
WEINERT 2NNE     N/A    101  63  28 N3        29.82S HX 103
WHITE RVR 6NE    N/A     99  54  22 E9        29.91S HX  97
$$

TXZ052-054-060>062-072-078-127-140-154-169-232000-
TEXAS TECH WEST TEXAS MESONET/PERMIAN BASIN/
CONCHO VALLEY/BIG COUNTRY/EDWARDS PLATEAU

CITY           SKY/WX    TMP DP  RH WIND       PRES   REMARKS
COYANOSA 2N      N/A    108  51  15 SE14      29.81S HX 105
JUNCTION 1SSW    N/A    104  63  26 SW5       29.82S HX 107
MERTZON 3NNE     N/A    104  58  21 S3        29.84S HX 104
SAN ANGELO 7NW   N/A    105  52  16 E8        29.81F HX 103
STRLNG CT 4WSW   N/A    102  56  21 SE14      29.84F HX 101
ST LAWRNCE 5SW   N/A    103  50  17 S12G22    29.85F HX 100
SWEETWATR 11SW   N/A    100  61  27 E8        29.90R HX 101
WALL 1E          N/A    105  58  21 SE14      29.82S HX 105
$$

TXZ055-058-074-075-080-082-232000-
TEXAS TECH WEST TEXAS MESONET/FAR WEST/SOUTHWEST MOUNTAINS/TRANS PECOS

CITY           SKY/WX    TMP DP  RH WIND       PRES   REMARKS
PRSMN GAP BBNP   N/A    102  51  18 NE15      29.85F HX  99
GUADLPE MTN NP   N/A     91  45  20 NE10      30.09S
$$




USA.gov is the U.S. government's official web portal to all federal, state and local government web resources and services.